Yatton Keynell, United Kingdom

12:18 PM BST on April 23, 2019 (GMT +0100)
Yatton Keynell

Weather History for 03740 - July, 2015

Change the Weather History Date:

Tuesday, July 7, 2015

  Actual Average Record
Temperature  
Mean Temperature 62 °F -  
Max Temperature 68 °F 69 °F - ()
Min Temperature 54 °F 53 °F - ()
Degree Days  
Heating Degree Days 4    
Growing Degree Days 12 (Base 50)    
Moisture  
Dew Point 53 °F    
Average Humidity 74    
Maximum Humidity 100    
Minimum Humidity 39    
Precipitation  
Precipitation 0.00 in 0.07 in - ()
Sea Level Pressure  
Sea Level Pressure 29.81 in    
Wind  
Wind Speed 10 mph ()    
Max Wind Speed 21 mph    
Max Gust Speed -    
T = Trace of Precipitation, MM = Missing Value Source: Averaged Metar Reports

Daily Weather History Graph

Daily Weather History Graph

Search for Another Location

Airport or City:

Astronomy

Jul. 07, 2015 Rise Set
Actual Time 4:59 AM BST 9:25 PM BST
Civil Twilight 4:13 AM BST 10:11 PM BST
Nautical Twilight 3:03 AM BST 11:21 PM BST
Astronomical Twilight 1:45 AM BST 12:40 AM BST
Moon No Moon Rise 11:48 AM BST (7/7)
Length of Visible Light 17h 58m
Length of Day
16h 26m
Waning Gibbous, 66% of the Moon is Illuminated
Jul 7
Waning Gibbous
Jul 8
Last Quarter
Jul 16
New
Jul 24
First Quarter
Jul 31
Full

Hourly Weather History & Observations

Time (BST) Temp. Dew Point Humidity Pressure Visibility Wind Dir Wind Speed Gust Speed Precip Events Conditions
12:00 AM 57 °F 53 °F 81% 29.94 in - South 10.4 mph - -  
1:00 AM 56 °F 53 °F 88% 29.93 in - South 8.1 mph - -  
2:00 AM 56 °F 54 °F 93% 29.90 in - SSE 10.4 mph - -   Scattered Clouds
3:00 AM 58 °F 55 °F 86% 29.87 in - South 8.1 mph - -   Scattered Clouds
4:00 AM 59 °F 56 °F 86% 29.84 in - South 8.1 mph - -   Mostly Cloudy
5:00 AM 60 °F 58 °F 93% 29.83 in - SSW 8.1 mph - -   Mostly Cloudy
6:00 AM 60 °F 60 °F 99% 29.81 in - South 8.1 mph - -   Overcast
7:00 AM 60 °F 60 °F 100% 29.79 in - South 5.8 mph - -  
8:00 AM 61 °F 61 °F 100% 29.78 in - SW 6.9 mph - -   Mostly Cloudy
9:00 AM 62 °F 62 °F 100% 29.78 in - SW 9.2 mph - -   Mostly Cloudy
10:00 AM 62 °F 60 °F 93% 29.77 in - SW 11.5 mph - -   Mostly Cloudy
11:00 AM 62 °F 57 °F 77% 29.78 in - West 11.5 mph - -   Mostly Cloudy
12:00 PM 60 °F 53 °F 72% 29.79 in - West 17.3 mph - -   Mostly Cloudy
1:00 PM 64 °F 51 °F 53% 29.78 in - WSW 18.4 mph - -   Partly Cloudy
2:00 PM 68 °F 50 °F 42% 29.78 in - West 16.1 mph - -   Partly Cloudy
3:00 PM 65 °F 50 °F 48% 29.78 in - West 19.6 mph - -   Scattered Clouds
4:00 PM 65 °F 49 °F 45% 29.78 in - West 20.7 mph - -   Scattered Clouds
5:00 PM 65 °F 46 °F 39% 29.79 in - West 18.4 mph - -   Scattered Clouds
6:00 PM 61 °F 47 °F 50% 29.79 in - West 20.7 mph - -   Partly Cloudy
7:00 PM 61 °F 45 °F 45% 29.78 in - West 17.3 mph - -   Scattered Clouds
8:00 PM 60 °F 47 °F 52% 29.78 in - West 18.4 mph - -  
9:00 PM 58 °F 48 °F 61% 29.78 in - West 12.7 mph - -  
10:00 PM 56 °F 52 °F 81% 29.80 in - WSW 10.4 mph - -   Partly Cloudy
11:00 PM 54 °F 52 °F 89% 29.80 in - WSW 6.9 mph - -   Partly Cloudy